EW0401 Weather Reports


time (UTC)temp
F
wind
direction
speed
knots
gust
knots
rain 1hr
in
rain 24hr
in
rain mn
in
humidity
%
barometer
mb
20260902194625 95 182 0.9 6.1 0.00 0.16 0.00 62 1014.2
20260902193104 95 0 0.0 6.1 0.00 0.16 0.00 64 1014.2
20260902191608 94 252 0.0 5.2 0.00 0.16 0.00 67 1014.2
20260902190106 93 0 0.9 5.2 0.00 0.16 0.00 66 1014.3
20260902184605 93 253 1.7 5.2 0.00 0.16 0.00 67 1014.4
20260902183139 92 267 1.7 7.0 0.00 0.16 0.00 71 1014.6
20260902181610 92 0 0.0 4.3 0.00 0.16 0.00 74 1014.8
20260902180106 91 0 1.7 7.0 0.00 0.16 0.00 74 1015.1
20260902174606 91 274 0.9 6.1 0.00 0.16 0.00 74 1015.4
20260902173103 91 0 0.0 7.0 0.00 0.16 0.00 76 1015.5
20260902171626 90 257 1.7 7.0 0.00 0.16 0.00 77 1015.7
20260902170106 89 0 2.6 8.7 0.00 0.16 0.00 79 1015.8
20260902164633 88 236 0.9 5.2 0.00 0.16 0.00 79 1016.2
20260902163102 87 0 1.7 7.0 0.00 0.16 0.00 83 1016.2
20260902161607 86 0 0.9 3.5 0.00 0.16 0.00 84 1016.4
20260902160111 86 0 0.9 6.1 0.00 0.16 0.00 85 1016.4
20260902154609 85 0 0.0 3.5 0.00 0.16 0.00 86 1016.2
20260902153104 84 0 0.0 5.2 0.00 0.16 0.00 86 1016.0
20260902151603 84 0 0.0 5.2 0.00 0.16 0.00 86 1016.1
20260902144609 83 0 0.0 3.5 0.00 0.16 0.00 87 1015.7
20260902143058 82 0 0.0 2.6 0.00 0.16 0.00 86 1015.7
20260902141600 82 0 0.0 2.6 0.00 0.16 0.00 86 1015.7
20260902134605 81 0 0.0 1.7 0.00 0.16 0.00 85 1015.5
20260902133107 81 0 0.0 0.0 0.00 0.16 0.00 85 1015.6
20260902131610 81 222 0.0 1.7 0.00 0.16 0.00 84 1015.6
20260902130113 81 0 0.0 3.5 0.00 0.16 0.00 83 1015.4
20260902124601 81 0 0.9 4.3 0.00 0.16 0.00 84 1015.2
20260902123102 82 261 1.7 8.7 0.00 0.16 0.00 87 1014.7
20260902123033 82 264 1.7 7.8 0.00 0.16 0.00 87 1014.5
20260902123006 82 258 1.7 7.8 0.00 0.16 0.00 87 1014.4
20260902121601 82 259 0.9 7.0 0.00 0.16 0.00 88 1014.6
20260902120101 82 258 1.7 5.2 0.00 0.16 0.00 88 1013.7
20260902114619 82 259 0.9 7.0 0.00 0.16 0.00 88 1013.9
20260902113102 82 200 1.7 7.0 0.00 0.16 0.00 88 1014.0
20260902111604 82 273 1.7 6.1 0.00 0.16 0.00 87 1014.0
20260902110107 82 288 1.7 7.0 0.00 0.16 0.00 87 1014.0
20260902104602 82 0 1.7 7.0 0.00 0.16 0.00 87 1014.0
20260902103109 82 208 1.7 7.0 0.00 0.16 0.00 87 1014.0
20260902101600 82 227 0.9 6.1 0.00 0.16 0.00 87 1014.0
20260902094605 82 0 0.9 5.2 0.00 0.16 0.00 87 1013.9
20260902093059 82 0 1.7 6.1 0.00 0.16 0.00 87 1013.8
20260902091603 82 202 0.0 6.1 0.00 0.16 0.00 87 1013.7
20260902084601 82 270 1.7 7.0 0.00 0.16 0.00 86 1013.7
20260902083100 82 213 3.5 12.2 0.00 0.16 0.00 86 1013.6
20260902081559 82 213 0.9 8.7 0.00 0.16 0.00 86 1013.7
20260902074602 82 176 2.6 10.4 0.00 0.16 0.00 86 1013.8
20260902073101 82 289 0.9 7.0 0.00 0.16 0.00 87 1013.8
20260902071606 82 0 0.9 7.0 0.00 0.16 0.00 87 1014.0
20260902070105 82 263 0.0 6.1 0.00 0.16 0.00 87 1014.0
20260902064600 82 0 0.9 3.5 0.00 0.16 0.00 87 1013.8
20260902063109 82 0 0.9 4.3 0.00 0.16 0.00 87 1013.9
20260902061602 81 260 1.7 7.0 0.00 0.16 0.00 86 1013.8
20260902060128 81 265 0.9 5.2 0.00 0.16 0.00 85 1013.6
20260902054600 81 0 0.9 5.2 0.00 0.16 0.00 84 1013.7
20260902053100 80 249 0.0 5.2 0.00 0.16 0.00 85 1013.6
20260902051558 80 0 0.9 6.1 0.00 0.16 0.00 85 1013.5
20260902044604 80 0 0.0 0.9 0.00 0.16 0.16 86 1013.8
20260902043102 80 0 0.0 2.6 0.00 0.16 0.16 86 1013.9
20260902041611 80 0 0.0 2.6 0.00 0.16 0.16 86 1013.8
20260902040104 80 265 1.7 5.2 0.00 0.16 0.16 86 1013.8
20260902034604 80 0 0.0 4.3 0.00 0.16 0.16 86 1013.9
20260902033103 79 261 0.9 7.0 0.00 0.16 0.16 86 1013.9
20260902031603 79 0 0.0 3.5 0.00 0.16 0.16 87 1013.7
20260902030109 79 0 0.0 2.6 0.00 0.16 0.16 87 1013.6
20260902024601 79 0 0.9 4.3 0.00 0.16 0.16 88 1013.4
20260902023057 79 277 0.0 6.1 0.00 0.16 0.16 88 1013.0
20260902021600 78 0 1.7 5.2 0.00 0.16 0.16 89 1012.7
20260902014603 78 0 0.0 2.6 0.00 0.16 0.16 89 1012.5
20260902013100 78 0 0.0 1.7 0.00 0.16 0.16 89 1012.4
20260902011609 78 0 0.0 1.7 0.00 0.16 0.16 89 1012.3
20260902010100 78 271 0.0 2.6 0.00 0.16 0.16 89 1012.4
20260902004602 78 0 0.0 2.6 0.00 0.16 0.16 90 1012.2
20260902003106 78 274 0.0 2.6 0.00 0.16 0.16 90 1012.4
20260902001602 78 0 0.0 5.2 0.00 0.16 0.16 90 1012.7
20260902000120 78 0 0.0 1.7 0.00 0.16 0.16 90 1012.6
20260901234604 78 0 0.0 1.7 0.00 0.16 0.16 90 1012.5
20260901233108 78 0 0.0 2.6 0.00 0.16 0.16 90 1012.5
20260901231606 78 0 0.0 1.7 0.01 0.16 0.16 90 1012.7
20260901230115 78 0 0.0 0.9 0.03 0.16 0.16 90 1012.9
20260901224606 77 0 0.0 1.7 0.04 0.17 0.16 90 1013.0
20260901223117 77 0 0.0 0.0 0.08 0.17 0.16 90 1013.1
20260901221615 77 0 0.0 1.7 0.10 0.16 0.15 90 1013.1
20260901220134 77 0 0.0 1.7 0.08 0.14 0.13 89 1013.2
20260901214603 78 0 0.0 2.6 0.07 0.13 0.12 88 1013.5
20260901213128 79 0 0.0 4.3 0.03 0.09 0.08 87 1013.8
20260901211604 80 0 1.7 3.5 0.00 0.06 0.05 87 1014.0
20260901210106 80 0 0.0 0.0 0.00 0.06 0.05 87 1013.8
20260901204610 81 0 0.0 0.0 0.03 0.07 0.05 88 1013.8
20260901203110 81 0 0.0 0.0 0.05 0.07 0.05 87 1013.6
20260901201603 81 0 0.0 1.7 0.05 0.07 0.05 87 1013.6
20260901200059 82 0 0.0 1.7 0.05 0.07 0.05 86 1013.9